NOAA 16 DEB, 41272

Orbit data source: Space-Track

NOAA 16 DEB, 41272 is space debris in SSO originally from a launch on Thu, 21 Sep 2000 UTC launched from the Air Force Western Test Range (AFWTR). Debris objects in space refer to the collection of defunct objects orbiting the Earth. Examples of debris include non-operational satellites, rocket bodies, and fragments generated from explosions, collisions, or faulty payload assembly.

Loading next visibility...
Identifier
41272, 2000-055FY
Orbit
SSO
Country
Flag of USUS
Related business
Manufacturer
Unknown
Mission
Spacecraft
Bus & Motor
Unknown
Mass
Unknown
Launch date (UTC)
2000-09-21 (26 years ago)
Launch vehicle
Unknown
Launch site
Air Force Western Test Range (AFWTR)
Object type
Payload
Rocket body
Debris
Shape & HBR
Unknown shape, 0.1 m
Radar Cross Section
Medium (>0.1 m² and <1 m²)

Expand to show TLE details & history
Last TLE update: 2 days ago

TLE from 2 days ago
0 NOAA 16 DEB
1 41272U 00055FY  26171.47316434  .00003166  00000-0  13283-2 0  9990
2 41272  98.7389 240.0269 0029170 116.4920 243.9257 14.26408828540810
Epoch: 2026-06-20T11:21Z
TLE epoch observation values (Epoch: 2026-06-20T11:21:21.398Z)
Latitude
-0.00002°
Longitude
161.00046°
Altitude
815.941 km
Speed
7.44 km/s
True Right ascension
16h 00m 06s
True Declination
0° 00' 00"
Sunlit
Object was in full shadow at epoch
Visualization orbit readout
Latitude
Unknown
Longitude
Unknown
Altitude
Unknown
Speed
Unknown
Apparent Right ascension
Unknown
Apparent Declination
Unknown
Sunlit
N/A
Visualization observer readout
Local Sidereal Time
21:35:14
Azimuth
Unknown
Elevation
Unknown
Doppler factor
Unknown
Orbital elements
Apogee altitude
821.853 km
Perigee altitude
779.97 km
Semi-major axis
7,179.048 km
Eccentricity
0.00292
Inclination
98.7389°
RAAN
240.0269°
Arg. of periapsis
116.492°
True anomaly
243.62594°
Mean anomaly
243.9257°
Eccentric anomaly
243.77577°
Mean motion
3.56815 °/min
Orbital period
100.89 mins
BSTAR
0.0013283
Loading maneuver chart data...
Computing Atmospheric mass density...
Loading historical data...
Loading historical data...
Loading historical data...
Loading historical data...
Loading historical data...
Loading historical data...
Loading historical data...

Documentation

Showing up to 5 results
|